Location: Bright Sky Observatory
(40.7821°N, 74.2425°W)
Time: 18:18:55
(UTC-04:00)

Amateur Radio Satellites - All Passes

Search period start: 27 August 2016 17:48
Search period end: 28 August 2016 17:48
Location: Bright Sky Observatory, 40.7821°N, 74.2425°W

Satellite Date Start Highest point End Downlink Frequencies (MHz)
Time Altitude Azimuth
CUBESAT XI-V 27 Aug 18:06:53 18:11:36 69° 102° (ESE) 18:16:17 437.345
Cosmos 2491 27 Aug 18:14:45 18:23:11 58° 91° (E) 18:31:42 435.465 / 435.565
KKS-1 27 Aug 18:21:42 18:24:17 15° 297° (WNW) 18:26:51 437.445
MOZHAYETS 4 27 Aug 18:27:21 18:28:38 11° 299° (WNW) 18:29:53
GOMX 1 27 Aug 18:33:07 18:38:10 86° 259° (WSW) 18:43:35 467.674
Cubesat XI-IV 27 Aug 18:33:08 18:38:29 82° 256° (WSW) 18:43:52 437.490
YUBILEINY 27 Aug 18:34:48 18:43:23 61° 269° (W) 18:51:53 435.215
DOVE 4 27 Aug 18:40:41 18:45:42 54° 73° (ENE) 18:50:52 437.250
HORYU 2 27 Aug 18:44:43 18:45:03 10° 270° (W) 18:45:23 437.375
CUTE 1.7 + AOD 2 27 Aug 18:44:54 18:45:05 10° 62° (ENE) 18:45:17 437.475
CUTE-I 27 Aug 18:45:10 18:50:27 64° 258° (WSW) 18:55:45 437.470
NOAA 15 27 Aug 18:47:16 18:52:18 46° 261° (W) 18:57:22 137.62
Cosmos 2504 27 Aug 18:54:45 19:02:00 70° 80° (E) 19:09:08 435.465 / 435.565
BRITE-PL 27 Aug 18:57:55 19:01:45 23° 268° (W) 19:05:51 437.365/2234.400
BEESAT 2 27 Aug 18:58:01 19:01:53 44° 53° (NE) 19:05:44 435.950
STARS 27 Aug 18:58:39 19:00:31 13° 298° (WNW) 19:02:21 437.465
LilacSat-2 27 Aug 19:06:57 19:10:16 28° 264° (W) 19:13:36 437.200
HO-68 27 Aug 19:08:56 19:15:29 40° 64° (ENE) 19:22:03 435.675
BEESAT 3 27 Aug 19:16:28 19:20:23 57° 242° (WSW) 19:24:15 437.485
CINEMA 3 27 Aug 19:22:53 19:27:34 41° 71° (ENE) 19:32:14 145.822/145.860
STRAND 1 27 Aug 19:23:42 19:27:42 23° 94° (E) 19:31:41 437.568
NOAA 18 27 Aug 19:24:37 19:29:31 32° 263° (W) 19:34:26 137.9125
UWE-3 27 Aug 19:42:37 19:44:31 12° 63° (ENE) 19:46:24 435.000/436.395/437.385
CUBEBUG 2 27 Aug 19:43:11 19:46:28 19° 66° (ENE) 19:49:44 437.445
CUBESAT XI-V 27 Aug 19:46:11 19:48:23 13° 298° (WNW) 19:50:35 437.345
AIST 1 27 Aug 19:49:01 19:52:14 19° 72° (ENE) 19:55:25
SEEDS 27 Aug 19:49:04 19:52:53 36° 71° (ENE) 19:56:43 437.485
ZACube-1 27 Aug 19:58:03 19:59:22 11° 63° (ENE) 20:00:40 437.345
CANX-2 27 Aug 20:09:59 20:14:11 75° 258° (WSW) 20:18:24 2200.000
Cosmos 2491 27 Aug 20:13:02 20:20:28 31° 291° (WNW) 20:28:02 435.465 / 435.565
CUTE 1.7 + AOD 2 27 Aug 20:16:06 20:20:18 74° 258° (WSW) 20:24:31 437.475
DOVE 4 27 Aug 20:20:08 20:23:42 19° 270° (W) 20:27:21 437.250
AAUSAT CUBESAT 2 27 Aug 20:20:20 20:24:14 44° 73° (ENE) 20:28:10 437.432
COMPASS 1 27 Aug 20:28:06 20:32:12 72° 77° (ENE) 20:36:20 437.405
BEESAT 2 27 Aug 20:36:53 20:39:21 16° 250° (WSW) 20:41:49 435.950
PCSat 27 Aug 20:40:20 20:45:23 37° 53° (NE) 20:50:22 145.827
Cosmos 2504 27 Aug 20:49:50 20:54:30 19° 280° (W) 20:59:09 435.465 / 435.565
HO-68 27 Aug 20:56:28 21:03:08 40° 262° (W) 21:09:51 435.675
CINEMA 3 27 Aug 21:00:53 21:04:48 23° 267° (W) 21:08:43 145.822/145.860
Oscar 11 27 Aug 21:01:59 21:06:10 52° 74° (ENE) 21:10:22 145.826/435.025
STRAND 1 27 Aug 21:02:14 21:07:01 42° 290° (WNW) 21:11:47 437.568
PRISM 27 Aug 21:03:36 21:07:03 24° 96° (E) 21:10:27 437.425
AIST 2 27 Aug 21:08:43 21:12:46 45° 53° (NE) 21:16:47 435.215
FUNcube-1 27 Aug 21:09:12 21:13:35 60° 74° (ENE) 21:17:53 145.935
UWE-3 27 Aug 21:15:51 21:20:26 69° 259° (WSW) 21:24:56 435.000/436.395/437.385
CUBEBUG 2 27 Aug 21:18:18 21:22:47 44° 261° (W) 21:27:11 437.445
SEEDS 27 Aug 21:25:53 21:28:42 18° 267° (W) 21:31:31 437.485
AIST 1 27 Aug 21:25:56 21:29:57 35° 269° (W) 21:33:54
ZACube-1 27 Aug 21:30:35 21:35:04 74° 259° (W) 21:39:27 437.345
AAUSAT CUBESAT 2 27 Aug 21:57:44 21:59:57 14° 269° (W) 22:02:10 437.432
DELFI C3 27 Aug 21:59:17 22:03:13 82° 260° (W) 22:07:10 145.870
Cosmos 2499 27 Aug 22:01:29 22:04:42 13° 62° (ENE) 22:07:54 435.465 / 435.565
HUMSAT D 27 Aug 22:17:07 22:21:15 74° 77° (ENE) 22:25:24 437.325/437.525
PCSat 27 Aug 22:23:55 22:28:39 31° 251° (WSW) 22:33:22 145.827
AUBIESAT-1 27 Aug 22:24:19 22:28:31 35° 65° (ENE) 22:32:44 437.475
ANTELSAT 27 Aug 22:29:06 22:32:27 22° 94° (E) 22:35:45 437.575/2403.000
M-CUBED/EXP-1 PRIME 27 Aug 22:29:39 22:34:09 48° 67° (ENE) 22:38:41 437.505
PRISM 27 Aug 22:38:44 22:42:18 27° 291° (WNW) 22:45:50 437.425
Oscar 11 27 Aug 22:40:34 22:42:36 13° 269° (W) 22:44:39 145.826/435.025
AIST 2 27 Aug 22:48:10 22:50:53 17° 250° (WSW) 22:53:36 435.215
FUNcube-1 27 Aug 22:48:23 22:50:09 12° 269° (W) 22:51:56 145.935
GONETS M04 27 Aug 22:49:37 22:58:05 46° 74° (ENE) 23:06:27
50 SAT 27 Aug 22:51:20 22:52:45 12° 65° (ENE) 22:54:12 437.505
ESTCUBE 1 27 Aug 22:58:20 23:02:24 35° 70° (ENE) 23:06:29 437.505/2401.250
TIGRISAT 27 Aug 22:59:28 23:03:35 45° 99° (E) 23:07:39 435.000
AISAT 27 Aug 23:06:53 23:10:31 25° 67° (ENE) 23:14:11 437.250
UKube-1 27 Aug 23:16:37 23:19:17 16° 64° (ENE) 23:21:58 .
UNISAT 6 27 Aug 23:28:01 23:32:19 79° 286° (WNW) 23:36:34 437.425
RS-15 27 Aug 23:29:16 23:34:28 14° 94° (E) 23:39:45 29.354- 29.394
JAS-2 27 Aug 23:29:48 23:33:07 14° 89° (E) 23:36:33 435.910
CUSAT 1 27 Aug 23:40:38 23:43:26 58° 96° (E) 23:46:54 437.405
Cosmos 2499 27 Aug 23:51:53 23:58:59 84° 84° (E) 00:06:09 435.465 / 435.565
VELOX 1 27 Aug 23:53:18 23:57:42 75° 75° (ENE) 00:02:10 145.980
O/OREOS (USA 219) 27 Aug 23:53:25 23:58:01 63° 66° (ENE) 00:02:34 437.305
CUBEBUG 1 27 Aug 23:55:09 23:59:32 86° 254° (WSW) 00:04:00 437.445
SO-50 27 Aug 23:58:13 00:03:05 79° 120° (ESE) 00:07:55 436.795
AUBIESAT-1 27 Aug 23:59:09 00:02:57 25° 260° (W) 00:06:48 437.475
BUGSAT 1 28 Aug 00:00:03 00:00:52 10° 90° (E) 00:01:42 437.445
QB50P1 28 Aug 00:00:31 00:04:19 31° 97° (E) 00:08:03 145.935-145.965
ANTELSAT 28 Aug 00:05:25 00:09:12 30° 290° (WNW) 00:12:55 437.575/2403.000
M-CUBED/EXP-1 PRIME 28 Aug 00:05:33 00:08:50 19° 263° (W) 00:12:09 437.505
DX 1 28 Aug 00:10:17 00:14:38 79° 77° (ENE) 00:19:02 434.975-435.025
POPSAT HIP 1 28 Aug 00:10:23 00:14:22 40° 98° (E) 00:18:20 437.405
SPROUT 28 Aug 00:12:24 00:16:38 59° 74° (ENE) 00:20:54 437.525
50 SAT 28 Aug 00:22:33 00:25:57 42° 261° (W) 00:29:23 437.505
TISAT 1 28 Aug 00:32:09 00:35:24 22° 67° (ENE) 00:38:39 437.305
ESTCUBE 1 28 Aug 00:35:52 00:39:17 21° 266° (W) 00:42:43 437.505/2401.250
TIGRISAT 28 Aug 00:37:18 00:39:54 16° 295° (WNW) 00:42:29 435.000
DUCHIFAT 1 28 Aug 00:37:49 00:42:02 76° 102° (ESE) 00:46:12 145.980
DANDE 28 Aug 00:38:56 00:41:30 86° 279° (W) 00:44:16 436.750
QB50P2 28 Aug 00:40:40 00:44:54 82° 286° (WNW) 00:49:06 145.880/145.840
AISAT 28 Aug 00:42:57 00:46:52 30° 264° (W) 00:50:49 437.250
POLYITAN 1 28 Aug 00:43:12 00:47:26 81° 282° (WNW) 00:51:36 437.675
GONETS M04 28 Aug 00:46:44 00:54:42 39° 274° (W) 01:02:38
UKube-1 28 Aug 00:50:47 00:54:57 47° 261° (W) 00:59:09 .
NANOSAT C BR1 28 Aug 00:51:44 00:55:56 69° 285° (WNW) 01:00:05 145.865
JAS-2 28 Aug 01:11:57 01:18:49 80° 104° (ESE) 01:26:25 435.910
ITUPSAT 1 28 Aug 01:13:09 01:15:21 13° 61° (ENE) 01:17:33 437.325
Oscar 19 28 Aug 01:26:44 01:30:36 21° 93° (E) 01:34:25 437.125/150
BUGSAT 1 28 Aug 01:32:33 01:36:38 60° 286° (WNW) 01:40:39 437.445
RS-15 28 Aug 01:33:02 01:44:23 69° 115° (ESE) 01:56:21 29.354- 29.394
O/OREOS (USA 219) 28 Aug 01:34:58 01:36:49 12° 262° (W) 01:38:40 437.305
QB50P1 28 Aug 01:36:40 01:39:53 21° 293° (WNW) 01:43:05 145.935-145.965
SO-50 28 Aug 01:40:57 01:44:08 17° 319° (NW) 01:47:17 436.795
SWISSCUBE 28 Aug 01:43:54 01:47:59 29° 68° (ENE) 01:52:04 437.505
POPSAT HIP 1 28 Aug 01:47:04 01:49:50 17° 295° (WNW) 01:52:37 437.405
Cosmos 2499 28 Aug 01:47:26 01:51:04 15° 281° (W) 01:54:43 435.465 / 435.565
SPROUT 28 Aug 01:51:21 01:52:56 12° 270° (W) 01:54:32 437.525
BEESAT 28 Aug 02:00:38 02:05:01 39° 70° (ENE) 02:09:26 436.000
TISAT 1 28 Aug 02:07:01 02:10:50 32° 263° (W) 02:14:42 437.305
PHONESAT 2.4 28 Aug 02:20:27 02:23:15 36° 159° (SSE) 02:26:03 2401.200-2431.200
Gurwin Techsat 1B 28 Aug 02:37:50 02:42:55 44° 99° (E) 02:47:59 435.225
ITAMSAT 1 28 Aug 02:42:19 02:44:55 14° 90° (E) 02:47:30 435.822/435.867
ITUPSAT 1 28 Aug 02:47:50 02:52:34 72° 257° (WSW) 02:57:20 437.325
JAS-2 28 Aug 02:58:27 03:03:13 21° 299° (WNW) 03:08:20 435.910
AO-7 28 Aug 03:04:56 03:09:25 15° 89° (E) 03:13:52 29.400- 29.500
Oscar 19 28 Aug 03:05:09 03:10:08 47° 290° (WNW) 03:15:06 437.125/150
SWISSCUBE 28 Aug 03:21:36 03:25:43 29° 264° (W) 03:29:50 437.505
BEESAT 28 Aug 03:39:17 03:42:55 22° 266° (W) 03:46:35 436.000
KKS-1 28 Aug 03:41:18 03:45:36 47° 72° (ENE) 03:49:55 437.445
RS-15 28 Aug 03:46:50 03:57:44 42° 321° (NW) 04:09:09 29.354- 29.394
MOZHAYETS 4 28 Aug 03:48:51 03:53:23 72° 75° (ENE) 03:57:57
PHONESAT 2.4 28 Aug 03:56:28 03:59:28 85° 176° (S) 04:02:28 2401.200-2431.200
STARS 28 Aug 04:16:21 04:20:41 55° 73° (ENE) 04:25:02 437.465
Gurwin Techsat 1B 28 Aug 04:18:25 04:22:35 24° 295° (WNW) 04:26:44 435.225
ITAMSAT 1 28 Aug 04:19:42 04:24:52 69° 287° (WNW) 04:30:00 435.822/435.867
Cosmos 2491 28 Aug 04:25:44 04:33:07 29° 68° (ENE) 04:40:26 435.465 / 435.565
AO-7 28 Aug 04:54:58 05:03:19 82° 106° (ESE) 05:11:37 29.400- 29.500
HORYU 2 28 Aug 04:56:24 04:58:38 14° 92° (E) 05:00:50 437.375
CUBESAT XI-V 28 Aug 05:09:42 05:14:14 64° 74° (ENE) 05:18:50 437.345
KKS-1 28 Aug 05:19:40 05:22:24 16° 268° (W) 05:25:10 437.445
BRITE-PL 28 Aug 05:24:33 05:27:59 16° 89° (E) 05:31:21 437.365/2234.400
MOZHAYETS 4 28 Aug 05:30:09 05:31:02 10° 271° (W) 05:31:55
PHONESAT 2.4 28 Aug 05:32:49 05:35:47 62° 192° (SSW) 05:38:44 2401.200-2431.200
AO-85 28 Aug 05:36:19 05:41:38 75° 120° (ESE) 05:46:40 145.980
YUBILEINY 28 Aug 05:39:33 05:47:07 34° 84° (E) 05:54:42 435.215
STARS 28 Aug 05:55:11 05:57:21 13° 269° (W) 05:59:32 437.465
RS-15 28 Aug 06:06:01 06:14:54 22° 354° (N) 06:23:58 29.354- 29.394
NOAA 18 28 Aug 06:07:39 06:10:22 14° 90° (E) 06:13:05 137.9125
Cosmos 2491 28 Aug 06:21:52 06:30:33 64° 268° (W) 06:39:13 435.465 / 435.565
HORYU 2 28 Aug 06:31:11 06:35:30 53° 287° (WNW) 06:39:47 437.375
GOMX 1 28 Aug 06:35:47 06:40:37 32° 94° (E) 06:45:13 467.674
STRAND 1 28 Aug 06:39:12 06:43:42 32° 68° (ENE) 06:48:13 437.568
LilacSat-2 28 Aug 06:40:14 06:43:32 28° 96° (E) 06:46:50 437.200
DOVE 4 28 Aug 06:41:45 06:44:41 15° 89° (E) 06:47:30 437.250
AO-7 28 Aug 06:49:01 06:55:10 24° 307° (NW) 07:01:20 29.400- 29.500
CUBESAT XI-V 28 Aug 06:50:11 06:52:02 12° 270° (W) 06:53:54 437.345
Cubesat XI-IV 28 Aug 06:50:48 06:55:49 40° 98° (E) 07:00:47 437.490
SO-50 28 Aug 06:51:54 06:53:18 11° 35° (NE) 06:54:41 436.795
BRITE-PL 28 Aug 07:01:15 07:06:57 71° 285° (WNW) 07:12:29 437.365/2234.400
NOAA 15 28 Aug 07:02:16 07:07:35 67° 102° (ESE) 07:12:52 137.62
CUTE-I 28 Aug 07:02:24 07:07:36 52° 100° (E) 07:12:46 437.470
PHONESAT 2.4 28 Aug 07:09:40 07:11:49 18° 208° (SSW) 07:13:56 2401.200-2431.200
AO-85 28 Aug 07:18:55 07:22:35 19° 317° (NW) 07:26:07 145.980
Cosmos 2504 28 Aug 07:31:25 07:39:44 62° 93° (E) 07:47:30 435.465 / 435.565
YUBILEINY 28 Aug 07:34:56 07:43:30 53° 284° (WNW) 07:52:07 435.215
NOAA 18 28 Aug 07:46:06 07:51:35 75° 287° (WNW) 07:57:01 137.9125
PRISM 28 Aug 07:53:25 07:56:09 18° 65° (ENE) 07:58:55 437.425
CANX-2 28 Aug 07:56:02 07:59:02 19° 93° (E) 08:02:02 2200.000
CUTE 1.7 + AOD 2 28 Aug 08:02:02 08:05:03 19° 93° (E) 08:08:05 437.475
COMPASS 1 28 Aug 08:13:14 08:14:41 12° 90° (E) 08:16:09 437.405
GOMX 1 28 Aug 08:13:50 08:18:36 32° 292° (WNW) 08:23:10 467.674
LilacSat-2 28 Aug 08:14:59 08:17:39 19° 292° (WNW) 08:20:18 437.200
DOVE 4 28 Aug 08:17:50 08:22:48 57° 287° (WNW) 08:27:28 437.250
STRAND 1 28 Aug 08:18:25 08:22:50 29° 264° (W) 08:27:17 437.568
AIST 1 28 Aug 08:20:12 08:21:31 11° 83° (E) 08:22:50
RS-15 28 Aug 08:22:22 08:32:59 32° 29° (NNE) 08:43:32 29.354- 29.394
HO-68 28 Aug 08:23:53 08:30:37 41° 99° (E) 08:37:16 435.675
Cosmos 2491 28 Aug 08:24:18 08:25:28 10° 288° (WNW) 08:26:39 435.465 / 435.565
ISS 28 Aug 08:27:49 08:30:52 37° 137° (SE) 08:33:57 145.825
SO-50 28 Aug 08:30:09 08:34:44 64° 55° (NE) 08:39:10 436.795
Cubesat XI-IV 28 Aug 08:31:19 08:35:39 26° 295° (WNW) 08:39:59 437.490
BRITE-PL 28 Aug 08:43:04 08:44:21 11° 303° (WNW) 08:45:38 437.365/2234.400
CUTE-I 28 Aug 08:43:24 08:47:15 21° 297° (WNW) 08:51:05 437.470
NOAA 15 28 Aug 08:43:30 08:46:47 17° 299° (WNW) 08:50:03 137.62
CINEMA 3 28 Aug 08:54:59 08:59:33 82° 281° (WNW) 09:03:50 145.822/145.860
FUNcube-1 28 Aug 09:00:21 09:01:03 10° 90° (E) 09:01:44 145.935
UWE-3 28 Aug 09:06:31 09:09:50 22° 94° (E) 09:13:05 435.000/436.395/437.385
BEESAT 3 28 Aug 09:07:10 09:10:17 23° 113° (ESE) 09:13:26 437.485
SEEDS 28 Aug 09:08:11 09:12:24 76° 103° (ESE) 09:16:36 437.485
CUBEBUG 2 28 Aug 09:09:34 09:13:31 37° 98° (E) 09:17:21 437.445
ZACube-1 28 Aug 09:20:02 09:23:07 20° 94° (E) 09:26:10 437.345
Cosmos 2504 28 Aug 09:26:43 09:33:33 27° 290° (WNW) 09:40:04 435.465 / 435.565
PRISM 28 Aug 09:27:21 09:31:09 38° 261° (W) 09:35:01 437.425
ANTELSAT 28 Aug 09:27:41 09:31:08 21° 67° (ENE) 09:34:32 437.575/2403.000
NOAA 18 28 Aug 09:30:10 09:31:17 11° 304° (NW) 09:32:24 137.9125
CANX-2 28 Aug 09:31:07 09:35:00 36° 288° (WNW) 09:38:52 2200.000
CUTE 1.7 + AOD 2 28 Aug 09:37:07 09:40:59 35° 289° (WNW) 09:44:51 437.475
AAUSAT CUBESAT 2 28 Aug 09:37:47 09:41:58 89° 94° (E) 09:46:09 437.432
DELFI C3 28 Aug 09:38:40 09:40:31 13° 91° (E) 09:42:21 145.870
COMPASS 1 28 Aug 09:46:29 09:50:35 56° 285° (WNW) 09:54:41 437.405
AIST 1 28 Aug 09:54:14 09:58:31 59° 280° (W) 10:02:52
TIGRISAT 28 Aug 09:57:28 10:01:45 40° 71° (ENE) 10:05:59 435.000
HUMSAT D 28 Aug 10:02:52 10:04:14 11° 91° (E) 10:05:36 437.325/437.525
ISS 28 Aug 10:04:28 10:07:23 29° 334° (NNW) 10:10:20 145.825
CUSAT 1 28 Aug 10:10:12 10:16:34 55° 78° (ENE) 10:24:07 437.405
HO-68 28 Aug 10:11:44 10:18:14 39° 296° (WNW) 10:24:42 435.675
SO-50 28 Aug 10:12:22 10:14:37 14° 252° (WSW) 10:16:51 436.795
Oscar 11 28 Aug 10:25:12 10:29:31 71° 284° (WNW) 10:33:48 145.826/435.025
UNISAT 6 28 Aug 10:25:56 10:30:32 87° 79° (E) 10:35:05 437.425
BEESAT 2 28 Aug 10:26:46 10:30:42 88° 291° (WNW) 10:34:43 435.950
FUNcube-1 28 Aug 10:33:36 10:37:41 60° 286° (WNW) 10:41:45 145.935
RS-15 28 Aug 10:35:15 10:47:43 81° 56° (NE) 10:59:56 29.354- 29.394
Cosmos 2499 28 Aug 10:41:30 10:43:21 11° 77° (ENE) 10:45:10 435.465 / 435.565
UWE-3 28 Aug 10:42:42 10:46:17 28° 291° (WNW) 10:49:51 435.000/436.395/437.385
BEESAT 3 28 Aug 10:44:19 10:47:48 30° 310° (NW) 10:51:19 437.485
CUBEBUG 2 28 Aug 10:46:57 10:49:51 18° 294° (WNW) 10:52:42 437.445
QB50P1 28 Aug 10:52:51 10:56:17 24° 68° (ENE) 10:59:44 145.935-145.965
ZACube-1 28 Aug 10:55:47 10:59:28 31° 289° (WNW) 11:03:07 437.345
POPSAT HIP 1 28 Aug 11:02:35 11:06:19 30° 70° (ENE) 11:10:03 437.405
ANTELSAT 28 Aug 11:03:18 11:07:36 38° 262° (W) 11:11:50 437.575/2403.000
DELFI C3 28 Aug 11:11:45 11:15:36 46° 287° (WNW) 11:19:27 145.870
DANDE 28 Aug 11:12:27 11:17:56 68° 80° (E) 11:25:04 436.750
PCSat 28 Aug 11:21:54 11:26:44 34° 110° (ESE) 11:31:35 145.827
JAS-2 28 Aug 11:25:52 11:30:18 29° 65° (ENE) 11:34:59 435.910
DUCHIFAT 1 28 Aug 11:29:03 11:33:11 52° 73° (ENE) 11:37:19 145.980
QB50P2 28 Aug 11:32:33 11:36:48 71° 75° (ENE) 11:41:04 145.880/145.840
POLYITAN 1 28 Aug 11:35:03 11:39:19 72° 75° (ENE) 11:43:36 437.675
TIGRISAT 28 Aug 11:35:15 11:38:34 19° 267° (W) 11:41:51 435.000
HUMSAT D 28 Aug 11:36:11 11:40:10 54° 286° (WNW) 11:44:10 437.325/437.525
AUBIESAT-1 28 Aug 11:38:31 11:41:39 22° 99° (E) 11:44:35 437.475
ISS 28 Aug 11:43:02 11:44:40 13° 354° (N) 11:46:19 145.825
NANOSAT C BR1 28 Aug 11:43:03 11:47:18 82° 79° (ENE) 11:51:35 145.865
M-CUBED/EXP-1 PRIME 28 Aug 11:44:25 11:48:06 32° 101° (E) 11:51:30 437.505
CUBEBUG 1 28 Aug 11:45:00 11:48:02 18° 93° (E) 11:51:03 437.445
VELOX 1 28 Aug 11:45:09 11:47:35 14° 91° (E) 11:50:00 145.980
GONETS M04 28 Aug 11:50:04 11:58:27 53° 89° (E) 12:06:53
50 SAT 28 Aug 11:51:56 11:53:59 14° 93° (E) 11:56:03 437.505
CUSAT 1 28 Aug 11:52:47 11:58:21 29° 270° (W) 12:04:41 437.405
DX 1 28 Aug 12:00:21 12:02:35 14° 91° (E) 12:04:48 434.975-435.025
BEESAT 2 28 Aug 12:07:52 12:09:09 11° 321° (NW) 12:10:27 435.950
BUGSAT 1 28 Aug 12:21:17 12:25:32 88° 81° (E) 12:29:49 437.445
Cosmos 2499 28 Aug 12:27:01 12:35:09 71° 94° (E) 12:42:42 435.465 / 435.565
ESTCUBE 1 28 Aug 12:27:06 12:31:40 80° 103° (ESE) 12:36:12 437.505/2401.250
QB50P1 28 Aug 12:28:12 12:31:56 29° 264° (W) 12:35:40 145.935-145.965
AISAT 28 Aug 12:32:40 12:37:02 50° 100° (E) 12:41:20 437.250
UKube-1 28 Aug 12:38:15 12:42:00 27° 96° (E) 12:45:42 .
POPSAT HIP 1 28 Aug 12:38:40 12:42:05 23° 265° (W) 12:45:31 437.405
Oscar 19 28 Aug 12:43:08 12:47:34 30° 67° (ENE) 12:52:02 437.125/150
AIST 2 28 Aug 12:43:48 12:47:54 77° 304° (NW) 12:52:02 435.215
RS-15 28 Aug 12:49:09 12:58:53 29° 258° (WSW) 13:08:30 29.354- 29.394
DANDE 28 Aug 12:56:36 13:00:30 19° 270° (W) 13:05:00 436.750
PCSat 28 Aug 13:05:10 13:10:05 35° 308° (NW) 13:15:03 145.827
DUCHIFAT 1 28 Aug 13:07:10 13:09:10 13° 269° (W) 13:11:09 145.980
JAS-2 28 Aug 13:10:39 13:15:19 33° 264° (W) 13:20:15 435.910
AUBIESAT-1 28 Aug 13:12:40 13:16:06 27° 297° (WNW) 13:19:20 437.475
M-CUBED/EXP-1 PRIME 28 Aug 13:19:21 13:22:23 20° 300° (WNW) 13:25:15 437.505
VELOX 1 28 Aug 13:20:00 13:24:20 52° 287° (WNW) 13:28:39 145.980
ISS 28 Aug 13:20:01 13:22:11 16° 14° (NNE) 13:24:21 145.825
CUBEBUG 1 28 Aug 13:20:19 13:24:29 41° 289° (WNW) 13:28:37 437.445
50 SAT 28 Aug 13:24:22 13:27:41 34° 288° (WNW) 13:31:00 437.505
SPROUT 28 Aug 13:34:18 13:38:34 67° 285° (WNW) 13:42:47 437.525
DX 1 28 Aug 13:34:48 13:39:05 53° 287° (WNW) 13:43:19 434.975-435.025
GONETS M04 28 Aug 13:47:49 13:55:33 34° 290° (WNW) 14:03:24
TISAT 1 28 Aug 13:50:48 13:54:43 36° 98° (E) 13:58:35 437.305
Gurwin Techsat 1B 28 Aug 13:58:33 14:03:50 69° 73° (ENE) 14:09:08 435.225
ITAMSAT 1 28 Aug 13:59:33 14:03:29 22° 64° (ENE) 14:07:25 435.822/435.867
AO-7 28 Aug 14:03:21 14:09:45 25° 54° (NE) 14:16:08 29.400- 29.500
O/OREOS (USA 219) 28 Aug 14:05:15 14:09:43 79° 110° (ESE) 14:14:15 437.305
ESTCUBE 1 28 Aug 14:06:39 14:07:48 11° 299° (WNW) 14:08:56 437.505/2401.250
AO-85 28 Aug 14:09:02 14:13:15 53° 54° (NE) 14:17:09 145.980
AISAT 28 Aug 14:10:21 14:13:05 16° 296° (WNW) 14:15:48 437.250
UKube-1 28 Aug 14:14:20 14:17:56 26° 292° (WNW) 14:21:31 .
Oscar 19 28 Aug 14:22:10 14:26:47 33° 263° (W) 14:31:28 437.125/150
Cosmos 2499 28 Aug 14:22:50 14:28:51 23° 292° (WNW) 14:34:36 435.465 / 435.565
AIST 2 28 Aug 14:26:00 14:27:05 11° 322° (NW) 14:28:11 435.215
ITUPSAT 1 28 Aug 14:48:51 14:53:00 29° 96° (E) 14:57:09 437.325
ISS 28 Aug 14:55:55 14:59:11 58° 33° (NNE) 15:02:26 145.825
SWISSCUBE 28 Aug 15:21:03 15:25:49 72° 102° (ESE) 15:30:34 437.505
TISAT 1 28 Aug 15:27:08 15:30:05 19° 294° (WNW) 15:33:01 437.305
ITAMSAT 1 28 Aug 15:37:40 15:42:38 46° 260° (W) 15:47:37 435.822/435.867
BEESAT 28 Aug 15:38:06 15:42:53 85° 284° (WNW) 15:47:39 436.000
Gurwin Techsat 1B 28 Aug 15:41:27 15:44:16 14° 270° (W) 15:47:06 435.225
MOZHAYETS 4 28 Aug 15:45:08 15:48:08 17° 92° (E) 15:51:08
O/OREOS (USA 219) 28 Aug 15:47:58 15:49:44 12° 309° (NW) 15:51:32 437.305
YUBILEINY 28 Aug 15:50:38 15:55:31 16° 59° (ENE) 16:00:22 435.215
AO-85 28 Aug 15:51:13 15:53:05 13° 253° (WSW) 15:54:54 145.980
AO-7 28 Aug 15:53:17 16:01:40 79° 253° (WSW) 16:10:04 29.400- 29.500
HORYU 2 28 Aug 15:54:39 15:56:53 14° 62° (ENE) 15:59:07 437.375
ITUPSAT 1 28 Aug 16:26:40 16:30:46 29° 292° (WNW) 16:34:52 437.325
ISS 28 Aug 16:33:19 16:35:19 15° 229° (SW) 16:37:19 145.825
BRITE-PL 28 Aug 16:35:26 16:38:27 16° 61° (ENE) 16:41:38 437.365/2234.400
NOAA 15 28 Aug 16:45:39 16:48:17 14° 59° (ENE) 16:50:55 137.62
CUTE-I 28 Aug 16:48:22 16:50:04 11° 58° (ENE) 16:51:45 437.470
SWISSCUBE 28 Aug 17:00:49 17:03:00 13° 299° (WNW) 17:05:12 437.505
CUBESAT XI-V 28 Aug 17:07:33 17:10:33 17° 92° (E) 17:13:33 437.345
KKS-1 28 Aug 17:08:40 17:13:09 82° 285° (WNW) 17:17:35 437.445
MOZHAYETS 4 28 Aug 17:21:09 17:25:31 45° 288° (WNW) 17:29:52
LilacSat-2 28 Aug 17:22:57 17:25:13 15° 67° (ENE) 17:27:29 437.200
BEESAT 3 28 Aug 17:24:31 17:27:02 16° 44° (NE) 17:29:32 437.485
Cosmos 2504 28 Aug 17:25:48 17:30:39 19° 65° (ENE) 17:35:25 435.465 / 435.565
Cosmos 2491 28 Aug 17:27:11 17:34:33 32° 84° (E) 17:41:56 435.465 / 435.565
HORYU 2 28 Aug 17:28:31 17:32:55 61° 258° (WSW) 17:37:21 437.375
NOAA 18 28 Aug 17:32:46 17:37:24 28° 65° (ENE) 17:42:01 137.9125
